Estación de Nogales
Ultimos registro cada 15 minutos 32
| N° | Estación | Fecha / Hora | Temperatura | Humedad | Lluvia | Velocidad | Dirección | Radiación | Presion |
| 32 | Nogales | 04-05-2026 07:45 | 2,2 | 75,8 | 0 | 0 | 340 | 10,6 | 985,5 |
| 31 | Nogales | 04-05-2026 07:30 | 3 | 75,3 | 0 | 0,3 | 333 | 5,6 | 985,4 |
| 30 | Nogales | 04-05-2026 07:15 | 2,6 | 75,9 | 0 | 0,3 | 333 | 0,6 | 985,2 |
| 29 | Nogales | 04-05-2026 07:00 | 2,3 | 77,2 | 0 | 0 | 333 | 0,6 | 985,4 |
| 28 | Nogales | 04-05-2026 06:45 | 1,6 | 76,2 | 0 | 0 | 333 | 0,6 | 985,2 |
| 27 | Nogales | 04-05-2026 06:30 | 2,1 | 75,4 | 0 | 0 | 333 | 0,6 | 985,1 |
| 26 | Nogales | 04-05-2026 06:15 | 2,1 | 74,6 | 0 | 0 | 333 | 0,6 | 985,1 |
| 25 | Nogales | 04-05-2026 06:00 | 2,9 | 74,5 | 0 | 0,3 | 333 | 0,6 | 985 |
| 24 | Nogales | 04-05-2026 05:45 | 2,7 | 74,4 | 0 | 0 | 333 | 0,6 | 985,1 |
| 23 | Nogales | 04-05-2026 05:30 | 3 | 73,4 | 0 | 0 | 333 | 0,6 | 985 |
| 22 | Nogales | 04-05-2026 05:15 | 2,9 | 74,6 | 0 | 0 | 333 | 0,6 | 985 |
| 21 | Nogales | 04-05-2026 05:00 | 2,6 | 72,9 | 0 | 0 | 333 | 0,6 | 984,8 |
| 20 | Nogales | 04-05-2026 04:45 | 3,3 | 71,5 | 0 | 0 | 333 | 0,6 | 984,9 |
| 19 | Nogales | 04-05-2026 04:30 | 4,3 | 71,6 | 0 | 0,3 | 331 | 0,6 | 984,9 |
| 18 | Nogales | 04-05-2026 04:15 | 3,6 | 72,9 | 0 | 0 | 331 | 0,6 | 984,9 |
| 17 | Nogales | 04-05-2026 04:00 | 3 | 71,4 | 0 | 0 | 331 | 0,6 | 984,9 |
| 16 | Nogales | 04-05-2026 03:45 | 3,3 | 70,5 | 0 | 0 | 331 | 0,6 | 985,1 |
| 15 | Nogales | 04-05-2026 03:30 | 3,7 | 69,5 | 0 | 0 | 331 | 0,6 | 985,1 |
| 14 | Nogales | 04-05-2026 03:15 | 4 | 69,4 | 0 | 0 | 331 | 0,6 | 985,3 |
| 13 | Nogales | 04-05-2026 03:00 | 3,8 | 69,1 | 0 | 0 | 331 | 0,6 | 985,4 |
| 12 | Nogales | 04-05-2026 02:45 | 4,5 | 67,4 | 0 | 0 | 331 | 0,6 | 985,3 |
| 11 | Nogales | 04-05-2026 02:30 | 4,9 | 68,3 | 0 | 0 | 331 | 0,6 | 985,4 |
| 10 | Nogales | 04-05-2026 02:15 | 4,5 | 68,2 | 0 | 0 | 331 | 0,6 | 985,7 |
| 9 | Nogales | 04-05-2026 02:00 | 4,2 | 67,7 | 0 | 0 | 331 | 0,6 | 986 |
| 8 | Nogales | 04-05-2026 01:45 | 4,9 | 65,4 | 0 | 0 | 331 | 0,6 | 986,2 |
| 7 | Nogales | 04-05-2026 01:30 | 5,7 | 63,8 | 0 | 0 | 331 | 0,6 | 986,2 |
| 6 | Nogales | 04-05-2026 01:15 | 5,6 | 66,3 | 0 | 0,3 | 310 | 0,6 | 986,3 |
| 5 | Nogales | 04-05-2026 01:00 | 5,4 | 65,3 | 0 | 0 | 209 | 0,6 | 986,4 |
| 4 | Nogales | 04-05-2026 00:45 | 5,1 | 64,9 | 0 | 0 | 209 | 0,6 | 986,2 |
| 3 | Nogales | 04-05-2026 00:30 | 5,6 | 63,9 | 0 | 0 | 209 | 0,6 | 986,1 |
| 2 | Nogales | 04-05-2026 00:15 | 6 | 64,2 | 0 | 0 | 209 | 0,6 | 986,1 |
| 1 | Nogales | 04-05-2026 00:00 | 5,5 | 64,3 | 0 | 0 | 209 | 0,6 | 986,1 |